sat.trackr.live / text

‹ back to catalog

STARLINK-33804

NORAD 63511 · 2025-071U

PAYLOAD ACTIVE UNKNOWN

§ Identity

Operator
Country
US
Launch date
2025-04-07
Launch site
AFWTR
Launch vehicle
Mass (kg)
RCS (m²)

Purposes: comms

External: N2YO · Heavens-Above · Gunter

§ Orbital elements

Epoch: 2026-05-25T03:22:47.508096Z

Period
94.01 min
Inclination
53.1590°
Eccentricity
0.0001269
Mean motion
15.31722958 rev/d
Perigee alt
469.8 km
Apogee alt
471.5 km
Semi-major
6,848.8 km
B*
4.5572e-4
RAAN
144.8631°
Arg perigee
114.2255°
Mean anomaly
245.8879°
Rev number
6,410

§ Raw data

STARLINK-338041 63511U 25071U   26145.14082764  .00013813  00000+0  45572-3 0  99922 63511  53.1590 144.8631 0001269 114.2255 245.8879 15.31722958 64103

JSON: /api/v1/satellites/63511 · /tle

For live sub-satellite position, see the globe view (requires WebGL).

§ Visibility from observer

Set your observer location to see the next 7 days of passes ≥ 10°. The values pass through the URL so the page stays shareable.

No JS? Fill the form by hand. The geolocation button needs JavaScript.